Location: Brusselsch Zeekanaal
(50.8667°N, 4.3667°E)
Time: 06:25:42
(UTC+00:00)

Cosmos 2228 Rocket - Pass Details

Date: 08 November 2025
Orbit: 614 x 645 km, 82.5° (Epoch: 11 December)

Event Time Altitude Azimuth Distance (km) Brightness Sun altitude
Exits shadow 05:03:25 31° 281° (W) 1,102 3.8 -16.4°
Maximum altitude 05:03:45 31° 290° (WNW) 1,094 3.8 -16.4°
Drops below altitude 10° 05:07:42 10° 353° (N) 2,001 5.5 -15.7°
Sets 05:10:10 0° 4° (N) 2,917 6.5 -15.3°
